Flag for U.S.A. Weather past 2 weeks in Sioux Falls, South Dakota, U.S.A.

Now
69 °F

Partly sunny.


Feels Like: 69 °F
Forecast: 33 / 69 °F
Wind: No wind

Location: Foss Field

Current Time: Apr 27, 2015 at 6:24:59 PM

Latest Report: Apr 27, 2015 at 5:56 PM


Visibility: 10 mi

Pressure: 30.16 "Hg

Humidity: 19%

Dew point: 25 °F

Location of Sioux FallsLocation

Historic Weather in Sioux Falls — Graph

°F

Sioux Falls temperature yesterday

Maximum temperature yesterday: 66 °F (at 3:56 PM)
Minimum temperature yesterday: 34 °F (at 6:56 AM)
Average temperature yesterday: 51 °F

Past Weeks' High & Low Weather Summary

 TemperatureHumidityPressure
High75 °F (Apr 12, 4:56 PM)97% (Apr 19, 3:56 AM)30.25 "Hg (Apr 19, 3:56 AM)
Low26 °F (Apr 22, 5:56 AM)14% (Apr 13, 4:56 PM)29.51 "Hg (Apr 24, 4:56 PM)
Average52 °F52%29.95 "Hg
* Reported Apr 12 4:56 PM — Apr 27 4:56 PM, Sioux Falls, Weather by CustomWeather, © 2015

Note: Actual official high and low records may vary slightly from our data, if they occured in-between our weather recording intervals... More about our weather records

Advertising

Sioux Falls weather history for previous 24 hours

 ConditionsComfort  
Time TempWeatherWind HumidityBarometerVisibility
4:56 PM
Mon, Apr 27
69 °FPartly sunny.7 mph19%30.17 "Hg10 mi
3:56 PM69 °FPartly sunny.6 mph21%30.18 "Hg10 mi
2:56 PM67 °FPartly sunny.5 mph24%30.20 "Hg10 mi
1:56 PM66 °FPartly sunny.3 mph20%30.20 "Hg10 mi
12:56 PM65 °FScattered clouds.6 mph22%30.22 "Hg10 mi
11:56 AM63 °FScattered clouds.5 mph27%30.23 "Hg10 mi
10:56 AM60 °FScattered clouds.No wind30%30.24 "Hg10 mi
9:56 AM56 °FPassing clouds.5 mph39%30.25 "Hg10 mi
8:56 AM50 °FPassing clouds.5 mph46%30.25 "Hg10 mi
7:56 AM42 °FPassing clouds.5 mph68%30.24 "Hg10 mi
6:56 AM34 °FPassing clouds.5 mph76%30.22 "Hg10 mi
5:56 AM35 °FPassing clouds.3 mph70%30.20 "Hg10 mi
4:56 AM37 °FClear.3 mph70%30.18 "Hg10 mi
3:56 AM36 °FClear.6 mph70%30.18 "Hg10 mi
2:56 AM36 °FClear.5 mph75%30.17 "Hg10 mi
1:56 AM42 °FClear.6 mph53%30.17 "Hg10 mi
12:56 AM42 °FClear.5 mph57%30.18 "Hg10 mi
11:56 PM
Sun, Apr 26
46 °FClear.5 mph51%30.14 "Hg10 mi
10:56 PM48 °FClear.6 mph52%30.12 "Hg10 mi
9:56 PM50 °FClear.7 mph57%30.10 "Hg10 mi
8:56 PM52 °FPassing clouds.6 mph50%30.08 "Hg10 mi
7:56 PM60 °FPassing clouds.10 mph38%30.06 "Hg10 mi
6:56 PM64 °FPassing clouds.14 mph32%30.05 "Hg10 mi
Weather by CustomWeather, © 2015

See weather overviewHow to use our weather pages